Time,TemperatureF,DewpointF,PressureIn,WindDirection,WindDirectionDegrees,WindSpeedMPH,WindSpeedGustMPH,Humidity,HourlyPrecipIn,Conditions,Clouds,dailyrainin,SoftwareType,DateUTC
2013-09-11 00:05:00,-999.0,-99.9,30.13,South,180,5.0,8.0,-999,-99.99,,,-99.99,,2013-09-11 04:05:00,
2013-09-11 00:14:00,-999.0,-99.9,30.14,South,173,5.0,7.0,-999,-99.99,,,-99.99,,2013-09-11 04:14:00,
2013-09-11 00:24:00,-999.0,-99.9,30.13,South,169,4.0,6.0,-999,-99.99,,,-99.99,,2013-09-11 04:24:00,
2013-09-11 00:44:00,-999.0,-99.9,30.14,SSE,167,3.0,4.0,-999,-99.99,,,-99.99,,2013-09-11 04:44:00,
2013-09-11 00:54:00,-999.0,-99.9,30.13,SSE,165,4.0,4.0,-999,-99.99,,,-99.99,,2013-09-11 04:54:00,
2013-09-11 01:23:00,-999.0,-99.9,30.13,SSE,156,3.0,3.0,-999,-99.99,,,-99.99,,2013-09-11 05:23:00,
2013-09-11 01:34:00,-999.0,-99.9,30.12,South,184,3.0,5.0,-999,-99.99,,,-99.99,,2013-09-11 05:34:00,
2013-09-11 01:43:00,-999.0,-99.9,30.12,SSW,205,3.0,3.0,-999,-99.99,,,-99.99,,2013-09-11 05:43:00,
2013-09-11 01:53:00,-999.0,-99.9,30.12,SSW,199,3.0,5.0,-999,-99.99,,,-99.99,,2013-09-11 05:53:00,
2013-09-11 02:12:00,-999.0,-99.9,30.12,South,190,5.0,6.0,-999,-99.99,,,-99.99,,2013-09-11 06:12:00,
2013-09-11 02:52:00,-999.0,-99.9,30.12,South,189,5.0,7.0,-999,-99.99,,,-99.99,,2013-09-11 06:52:00,
2013-09-11 03:53:00,-999.0,-99.9,30.10,South,191,3.0,3.0,-999,-99.99,,,-99.99,,2013-09-11 07:53:00,
2013-09-11 04:03:00,-999.0,-99.9,30.10,South,184,3.0,3.0,-999,-99.99,,,-99.99,,2013-09-11 08:03:00,
2013-09-11 04:12:00,-999.0,-99.9,30.10,South,186,2.0,3.0,-999,-99.99,,,-99.99,,2013-09-11 08:12:00,
2013-09-11 04:32:00,-999.0,-99.9,30.10,SSW,205,4.0,6.0,-999,-99.99,,,-99.99,,2013-09-11 08:32:00,
2013-09-11 04:42:00,-999.0,-99.9,30.10,SSW,196,3.0,5.0,-999,-99.99,,,-99.99,,2013-09-11 08:42:00,
2013-09-11 04:52:00,-999.0,-99.9,30.10,South,188,3.0,4.0,-999,-99.99,,,-99.99,,2013-09-11 08:52:00,
2013-09-11 05:02:00,-999.0,-99.9,30.10,South,186,5.0,6.0,-999,-99.99,,,-99.99,,2013-09-11 09:02:00,
2013-09-11 05:22:00,-999.0,-99.9,30.10,South,187,6.0,7.0,-999,-99.99,,,-99.99,,2013-09-11 09:22:00,
2013-09-11 05:33:00,-999.0,-99.9,30.10,South,187,6.0,8.0,-999,-99.99,,,-99.99,,2013-09-11 09:33:00,
2013-09-11 05:43:00,-999.0,-99.9,30.10,SSW,198,5.0,9.0,-999,-99.99,,,-99.99,,2013-09-11 09:43:00,
2013-09-11 05:53:00,-999.0,-99.9,30.10,SSW,194,5.0,6.0,-999,-99.99,,,-99.99,,2013-09-11 09:53:00,
2013-09-11 06:03:00,-999.0,-99.9,30.11,South,190,4.0,7.0,-999,-99.99,,,-99.99,,2013-09-11 10:03:00,
2013-09-11 06:13:00,-999.0,-99.9,30.10,South,190,5.0,6.0,-999,-99.99,,,-99.99,,2013-09-11 10:13:00,
2013-09-11 06:33:00,-999.0,-99.9,30.11,South,188,4.0,6.0,-999,-99.99,,,-99.99,,2013-09-11 10:33:00,
2013-09-11 06:53:00,-999.0,-99.9,30.12,South,191,4.0,6.0,-999,-99.99,,,-99.99,,2013-09-11 10:53:00,
2013-09-11 07:03:00,-999.0,-99.9,30.12,South,187,5.0,6.0,-999,-99.99,,,-99.99,,2013-09-11 11:03:00,
2013-09-11 07:33:00,-999.0,-99.9,30.12,South,189,5.0,6.0,-999,-99.99,,,-99.99,,2013-09-11 11:33:00,
2013-09-11 07:42:00,-999.0,-99.9,30.12,South,184,5.0,6.0,-999,-99.99,,,-99.99,,2013-09-11 11:42:00,
2013-09-11 08:01:00,-999.0,-99.9,30.13,SSW,193,5.0,6.0,-999,-99.99,,,-99.99,,2013-09-11 12:01:00,
2013-09-11 08:22:00,-999.0,-99.9,30.13,South,185,4.0,6.0,-999,-99.99,,,-99.99,,2013-09-11 12:22:00,
2013-09-11 08:42:00,-999.0,-99.9,30.14,SSW,196,4.0,7.0,-999,-99.99,,,-99.99,,2013-09-11 12:42:00,
2013-09-11 09:02:00,-999.0,-99.9,30.14,South,183,4.0,6.0,-999,-99.99,,,-99.99,,2013-09-11 13:02:00,
2013-09-11 09:42:00,-999.0,-99.9,30.13,South,173,4.0,5.0,-999,-99.99,,,-99.99,,2013-09-11 13:42:00,
2013-09-11 10:02:00,-999.0,-99.9,30.14,South,177,4.0,5.0,-999,-99.99,,,-99.99,,2013-09-11 14:02:00,
2013-09-11 11:02:00,-999.0,-99.9,30.13,South,169,5.0,5.0,-999,-99.99,,,-99.99,,2013-09-11 15:02:00,
2013-09-11 11:11:00,-999.0,-99.9,30.13,South,173,5.0,5.0,-999,-99.99,,,-99.99,,2013-09-11 15:11:00,
2013-09-11 11:43:00,-999.0,-99.9,30.12,SSE,167,3.0,4.0,-999,-99.99,,,-99.99,,2013-09-11 15:43:00,
2013-09-11 11:54:00,-999.0,-99.9,30.12,SSE,161,3.0,3.0,-999,-99.99,,,-99.99,,2013-09-11 15:54:00,
2013-09-11 12:13:00,-999.0,-99.9,30.11,SSE,157,3.0,4.0,-999,-99.99,,,-99.99,,2013-09-11 16:13:00,
2013-09-11 12:23:00,-999.0,-99.9,30.11,SSE,166,3.0,3.0,-999,-99.99,,,-99.99,,2013-09-11 16:23:00,
2013-09-11 12:53:00,87.0,-99.9,30.10,North,-999,-999.0,-999.0,-999,-99.99,,,-99.99,,2013-09-11 16:53:00,
2013-09-11 13:03:00,-999.0,-99.9,30.10,South,188,7.0,9.0,-999,-99.99,,,-99.99,,2013-09-11 17:03:00,
2013-09-11 13:24:00,-999.0,-99.9,30.09,SSW,195,8.0,10.0,-999,-99.99,,,-99.99,,2013-09-11 17:24:00,
2013-09-11 13:34:00,-999.0,-99.9,30.09,SSW,194,10.0,11.0,-999,-99.99,,,-99.99,,2013-09-11 17:34:00,
2013-09-11 13:43:00,-999.0,-99.9,30.09,South,190,8.0,12.0,-999,-99.99,,,-99.99,,2013-09-11 17:43:00,
2013-09-11 14:12:00,-999.0,-99.9,30.08,South,189,9.0,14.0,-999,-99.99,,,-99.99,,2013-09-11 18:12:00,
2013-09-11 14:22:00,-999.0,-99.9,30.07,South,182,9.0,12.0,-999,-99.99,,,-99.99,,2013-09-11 18:22:00,
2013-09-11 14:32:00,-999.0,-99.9,30.07,South,174,11.0,13.0,-999,-99.99,,,-99.99,,2013-09-11 18:32:00,
2013-09-11 14:42:00,-999.0,-99.9,30.06,South,184,11.0,13.0,-999,-99.99,,,-99.99,,2013-09-11 18:42:00,
2013-09-11 14:52:00,-999.0,-99.9,30.06,South,185,10.0,13.0,-999,-99.99,,,-99.99,,2013-09-11 18:52:00,
2013-09-11 15:12:00,-999.0,-99.9,30.05,South,182,9.0,13.0,-999,-99.99,,,-99.99,,2013-09-11 19:12:00,
2013-09-11 15:32:00,-999.0,-99.9,30.04,South,179,12.0,15.0,-999,-99.99,,,-99.99,,2013-09-11 19:32:00,
2013-09-11 15:42:00,-999.0,-99.9,30.03,South,182,13.0,15.0,-999,-99.99,,,-99.99,,2013-09-11 19:42:00,
2013-09-11 16:03:00,-999.0,-99.9,30.03,South,188,11.0,17.0,-999,-99.99,,,-99.99,,2013-09-11 20:03:00,
2013-09-11 16:12:00,-999.0,-99.9,30.03,South,177,11.0,14.0,-999,-99.99,,,-99.99,,2013-09-11 20:12:00,
2013-09-11 16:32:00,-999.0,-99.9,30.02,South,175,15.0,16.0,-999,-99.99,,,-99.99,,2013-09-11 20:32:00,
2013-09-11 16:42:00,-999.0,-99.9,30.02,South,178,15.0,20.0,-999,-99.99,,,-99.99,,2013-09-11 20:42:00,
2013-09-11 17:12:00,-999.0,-99.9,30.01,South,175,14.0,17.0,-999,-99.99,,,-99.99,,2013-09-11 21:12:00,
2013-09-11 17:44:00,-999.0,-99.9,30.00,South,180,12.0,15.0,-999,-99.99,,,-99.99,,2013-09-11 21:44:00,
2013-09-11 17:54:00,-999.0,-99.9,30.00,South,184,10.0,15.0,-999,-99.99,,,-99.99,,2013-09-11 21:54:00,
2013-09-11 18:05:00,-999.0,-99.9,30.01,South,184,11.0,15.0,-999,-99.99,,,-99.99,,2013-09-11 22:05:00,
2013-09-11 19:12:00,-999.0,-99.9,30.00,South,182,11.0,15.0,-999,-99.99,,,-99.99,,2013-09-11 23:12:00,
2013-09-11 19:22:00,-999.0,-99.9,30.01,South,187,11.0,15.0,-999,-99.99,,,-99.99,,2013-09-11 23:22:00,
2013-09-11 19:34:00,-999.0,-99.9,30.01,South,181,13.0,17.0,-999,-99.99,,,-99.99,,2013-09-11 23:34:00,
2013-09-11 19:42:00,-999.0,-99.9,30.01,South,182,12.0,16.0,-999,-99.99,,,-99.99,,2013-09-11 23:42:00,
2013-09-11 20:01:00,-999.0,-99.9,30.02,South,184,8.0,10.0,-999,-99.99,,,-99.99,,2013-09-12 00:01:00,
2013-09-11 20:52:00,-999.0,-99.9,30.03,South,183,9.0,11.0,-999,-99.99,,,-99.99,,2013-09-12 00:52:00,
2013-09-11 21:01:00,-999.0,-99.9,30.03,South,181,9.0,11.0,-999,-99.99,,,-99.99,,2013-09-12 01:01:00,
2013-09-11 21:23:00,-999.0,-99.9,30.03,South,180,8.0,10.0,-999,-99.99,,,-99.99,,2013-09-12 01:23:00,
2013-09-11 21:42:00,-999.0,-99.9,30.03,South,171,6.0,10.0,-999,-99.99,,,-99.99,,2013-09-12 01:42:00,
2013-09-11 21:52:00,-999.0,-99.9,30.03,SSE,165,8.0,8.0,-999,-99.99,,,-99.99,,2013-09-12 01:52:00,
2013-09-11 22:03:00,-999.0,-99.9,30.02,SSE,166,8.0,10.0,-999,-99.99,,,-99.99,,2013-09-12 02:03:00,
2013-09-11 22:12:00,-999.0,-99.9,30.02,South,186,8.0,9.0,-999,-99.99,,,-99.99,,2013-09-12 02:12:00,
2013-09-11 22:22:00,-999.0,-99.9,30.02,South,190,7.0,9.0,-999,-99.99,,,-99.99,,2013-09-12 02:22:00,
2013-09-11 22:33:00,-999.0,-99.9,30.02,SSW,201,5.0,9.0,-999,-99.99,,,-99.99,,2013-09-12 02:33:00,
2013-09-11 22:42:00,-999.0,-99.9,30.02,SSW,201,5.0,9.0,-999,-99.99,,,-99.99,,2013-09-12 02:42:00,
2013-09-11 22:52:00,-999.0,-99.9,30.02,SSW,194,5.0,8.0,-999,-99.99,,,-99.99,,2013-09-12 02:52:00,
2013-09-11 23:22:00,-999.0,-99.9,30.01,South,186,6.0,9.0,-999,-99.99,,,-99.99,,2013-09-12 03:22:00,
2013-09-11 23:34:00,-999.0,-99.9,30.01,SSW,192,6.0,8.0,-999,-99.99,,,-99.99,,2013-09-12 03:34:00,
2013-09-11 23:55:00,-999.0,-99.9,30.00,South,179,7.0,10.0,-999,-99.99,,,-99.99,,2013-09-12 03:55:00,